Location: Laupheim
(48.2265°N, 9.8829°E)
Time: 20:01:09
(UTC+01:00)

ISS - Pass Details

Date: 16 November 2017
Orbit: 402 x 407 km, 51.6° (Epoch: 21 November)

Event Time Altitude Azimuth Distance (km) Brightness Sun altitude
Exits shadow 05:38:09 33° 205° (SSW) 705 -2.8 -18.3°
Drops below altitude 10° 05:40:53 10° 149° (SSE) 1,449 -0.5 -17.9°
Sets 05:43:04 0° 139° (SE) 2,305 0.8 -17.5°
